sat.trackr.live / text

‹ back to catalog

ONEWEB-0186

NORAD 48229 · 2021-031V

PAYLOAD ACTIVE UNKNOWN

§ Identity

Operator
Country
UK
Launch date
2021-04-25
Launch site
VOSTO
Launch vehicle
Mass (kg)
RCS (m²)

Purposes: comms

External: N2YO · Heavens-Above · Gunter

§ Orbital elements

Epoch: 2026-09-08T14:50:10.925664Z

Period
109.55 min
Inclination
87.8908°
Eccentricity
0.0001858
Mean motion
13.14501060 rev/d
Perigee alt
1,204.4 km
Apogee alt
1,207.2 km
Semi-major
7,583.9 km
B*
-3.7564e-4
RAAN
273.0673°
Arg perigee
89.6839°
Mean anomaly
270.4504°
Rev number
25,934

§ Raw data

ONEWEB-01861 48229U 21031V   26251.61818201 -.00000126  00000+0 -37564-3 0  99932 48229  87.8908 273.0673 0001858  89.6839 270.4504 13.14501060259346

JSON: /api/v1/satellites/48229 · /tle

For live sub-satellite position, see the globe view (requires WebGL).

§ Visibility from observer

Set your observer location to see the next 7 days of passes ≥ 10°. The values pass through the URL so the page stays shareable.

No JS? Fill the form by hand. The geolocation button needs JavaScript.